RH
54 62 61 62 35 19 32 55 65 76 87 92 95 97 95 92 95 95 94 85 83 78 80 90 95 87 80 77 74 71 57 59 69 62 61 59 55 44 42 46 42 46 45 37
49 60 63 63 39 20 34 55 65 78 84 88 92 97 98 97 97 94 86 83 84 84 81 95 88 87 84 77 71 70 66 73 82 72 69 59 48 38 37 41 41 44 46 40
47 57 64 66 44 20 34 57 65 74 81 82 85 92 96 94 90 93 87 86 83 82 85 82 86 86 78 74 75 80 72 72 61 52 47 41 39 35 36 39 48 46 46 46
45 55 65 70 45 19 31 48 62 71 75 77 83 81 89 91 90 92 87 88 87 79 82 80 82 80 76 75 73 79 73 62 59 44 38 41 36 39 42 44 45 48 49 58
44 53 65 71 56 21 23 42 59 72 76 74 77 81 87 85 86 91 94 92 85 82 78 76 79 76 73 72 72 66 56 56 55 51 43 45 46 48 52 49 52 55 57 57
42 51 65 69 65 25 23 38 60 75 75 74 72 76 80 85 83 86 88 89 86 87 81 77 74 71 69 68 65 62 58 57 53 53 54 50 47 48 49 52 54 55 50 39
42 48 63 69 72 26 21 36 61 66 70 73 70 65 68 75 73 77 82 81 79 80 79 82 77 71 72 70 68 63 60 61 60 59 59 57 47 54 54 52 49 42 41 41
43 44 60 70 74 35 20 35 58 58 64 62 57 54 62 62 59 68 74 75 73 74 74 75 75 80 73 78 77 74 71 72 73 69 67 58 56 48 45 44 51 49 53 59
45 45 55 70 75 60 22 34 55 56 59 55 49 47 47 49 54 58 59 56 58 59 64 68 72 70 63 64 62 56 58 55 56 65 61 60 46 43 43 50 64 61 60 51
45 45 51 67 75 78 32 33 49 57 54 58 54 50 43 41 40 41 40 41 44 47 53 61 64 60 52 57 55 48 45 46 46 49 51 49 49 52 53 55 46 45 44 45
44 45 48 57 74 80 69 35 40 50 53 54 57 51 44 43 39 37 36 38 37 38 44 49 52 53 52 58 65 69 69 73 71 74 74 67 47 44 45 44 44 44 46 45
43 44 46 52 67 79 83 64 41 44 48 50 51 54 52 48 44 43 43 46 43 41 45 49 52 57 61 68 73 68 67 61 63 58 54 45 44 43 44 45 46 47 47 47
44 44 46 47 53 69 80 81 67 48 51 52 55 54 52 53 54 53 51 51 51 53 54 59 61 67 69 71 68 64 61 59 59 55 52 50 47 47 47 49 49 49 49 45
45 44 45 46 48 58 71 79 80 74 62 57 59 58 58 56 53 55 57 54 55 56 59 60 62 66 65 66 64 65 64 61 56 53 52 53 52 50 49 48 48 46 43 43
47 44 43 44 47 50 61 67 76 79 78 73 67 66 63 61 61 58 55 53 55 58 64 65 66 68 67 69 70 72 69 61 59 53 46 46 48 48 47 46 44 43 42 43
49 50 50 50 52 50 53 59 65 69 75 75 81 77 72 70 69 66 66 64 64 67 69 73 74 73 71 72 71 59 54 53 50 48 48 48 48 48 47 44 42 41 42 46
53 55 57 58 60 58 54 51 54 56 57 67 74 71 71 76 79 79 79 83 87 86 88 91 89 85 81 77 71 55 50 48 46 46 47 49 49 48 46 45 44 46 50 49
66 62 62 64 64 59 61 55 53 57 57 56 59 63 65 71 75 79 76 79 79 80 83 79 76 75 70 69 55 50 49 47 47 48 48 47 46 47 48 47 50 48 46 45
78 72 68 68 68 66 66 63 61 60 62 63 62 62 62 59 68 72 77 80 79 79 79 76 74 70 65 55 52 47 46 46 46 46 46 47 49 50 50 47 46 44 44 45
88 84 75 74 74 72 69 71 72 68 65 64 63 64 63 60 63 67 70 75 77 79 78 75 71 64 59 62 55 54 52 53 53 52 53 54 53 50 48 47 47 47 47 48
93 88 82 81 86 84 76 74 77 79 75 67 63 62 65 66 68 68 66 73 73 71 68 70 65 57 49 47 47 48 52 53 54 52 51 50 50 49 48 48 47 48 48 48
96 88 89 92 94 93 89 82 76 73 73 69 72 71 69 70 69 74 71 69 68 63 64 65 59 48 44 44 44 44 44 45 48 50 53 51 49 46 44 45 47 47 46 49
98 98 98 97 97 97 86 81 78 72 66 71 70 74 76 77 73 75 70 66 62 59 62 58 47 42 45 48 48 49 50 54 54 49 47 45 41 40 41 43 44 46 47 50
98 98 97 96 92 83 74 69 67 65 68 69 72 75 78 82 82 78 73 72 68 70 68 58 52 54 57 57 57 55 52 48 45 42 39 39 41 42 42 44 47 45 47 47
98 97 96 90 84 77 74 71 69 70 70 70 74 78 79 84 85 80 81 81 79 72 68 63 59 59 58 57 51 46 43 41 38 36 38 40 44 46 46 46 48 46 46 46
98 96 90 85 85 79 76 74 70 72 71 74 76 80 82 86 84 84 77 76 72 65 63 57 58 57 53 49 47 45 42 41 40 41 39 39 44 48 51 52 54 52 52 54
97 92 87 81 81 80 76 78 75 75 77 78 75 73 76 77 77 77 72 66 57 54 55 55 53 51 50 51 49 47 45 43 40 40 41 43 46 51 57 62 62 59 58 57